Regional Weather Roundup
Issued by NWS

Home | Current Version | Previous Version | Graphics & Text | Print | Product List | Glossary On
Versions: 1 2 3 4 5 6 7 8 9 10 11 12 13 14 15 16 17 18 19 20 21 22 23 24 25 26 27 28 29 30 31 32 33 34 35 36 37 38 39 40 41
000
ASUS45 KBOU 210810
RWRCO

WEATHER ROUNDUP FOR COLORADO
NATIONAL WEATHER SERVICE DENVER/BOULDER CO
100 AM MST WED FEB 21 2018

NOTE: "FAIR" INDICATES FEW OR NO CLOUDS BELOW 12000 FEET WITH NO
SIGNIFICANT WEATHER AND/OR OBSTRUCTIONS TO VISIBILITY.

COZ001>005-013-030-031-210900-
...NORTHWEST COLORADO...

CITY           SKY/WX    TMP DP  RH WIND       PRES   REMARKS
CRAIG          FAIR     -12 -18  74 CALM      30.13R
HAYDEN         FAIR       1  -5  75 SE10      30.11R WCI -15
MEEKER         FAIR      -2  -8  76 E7        30.11R WCI -15
RANGELY        FAIR       5  -1  75 SE6       30.16S WCI  -6
RABBIT EARS PA FAIR      -2  -6  84 MISG      29.89S
STEAMBOAT SPGS FAIR      -3  -6  86 NW3       30.09R
WALDEN         FAIR      -4 -11  71 SE8       30.02F WCI -19
$$

COZ006>008-011-210900-
...WEST CENTRAL VALLEYS...

CITY           SKY/WX    TMP DP  RH WIND       PRES   REMARKS
GRAND JUNCTION FAIR      20  13  74 E14       30.14R WCI   7
MONTROSE       FAIR       8   4  83 S7        30.17R WCI  -3
EAGLE          FAIR       9   3  77 S5        30.14R WCI   1
RIFLE          FAIR       8   2  76 SE6       30.15R WCI  -2
DELTA          FAIR      16  11  80 NE3       30.17S
NUCLA          FAIR      14   9  79 E3        30.15S
$$

COZ017>023-064>068-210900-
...SOUTHWEST COLORADO...

CITY           SKY/WX    TMP DP  RH WIND       PRES   REMARKS
DURANGO        FAIR      12   5  73 N5        30.11R WCI   4
CORTEZ         FAIR      10   5  80 CALM      30.11S
PAGOSA SPRINGS FAIR       4   2  88 CALM      30.10S
TELLURIDE      FAIR      10  -7  46 E3        30.03R
WOLF CREEK PAS CLOUDY    -2  -4  92 S13G20    29.97S WCI -21
$$

COZ009-010-012-014-032>034-037-058>063-210900-
...CENTRAL COLORADO...

CITY           SKY/WX    TMP DP  RH WIND       PRES   REMARKS
ASPEN          FAIR      -2  -6  83 SW6       30.04S WCI -14
BUENA VISTA    FAIR       9   3  77 CALM      30.07S
COPPER MTN     FAIR       0 -13  55 S10       29.87R WCI -17
BERTHOUD PASS  FAIR      -9 -20  59 W14G21    29.82F WCI -31
COTTONWOOD PAS FAIR      12   0  57 CALM      29.98S
GUNNISON       FAIR      -1  -4  87 CALM      30.11R
GRANBY         LGT SNOW   0  -3  87 CALM      30.06R
KREMMLING      LGT SNOW   3   0  85 CALM      30.10R
LEADVILLE      FAIR     -15 -19  82 CALM      29.95R
MONARCH PASS   MOCLDY    -4  -8  84 SW22      29.99S WCI -28
SALIDA         FAIR      10   7  85 S5        30.17S WCI   2
SUNLIGHT       FAIR      -4  -8  84 S10G18    29.97S WCI -21
WILKERSON PASS FAIR      -2  -6  84 SW13G18   29.91F WCI -21
$$

COZ069>075-210900-
...SAN LUIS VALLEY/SANGRE DE CRISTO MOUNTAINS...

CITY           SKY/WX    TMP DP  RH WIND       PRES   REMARKS
ALAMOSA        FAIR       3  -2  79 E3        30.10R
DEL NORTE      FAIR       2  -5  71 W7        30.10R WCI -10
LA VETA PASS   FAIR       9   3  78 S14G26    30.09S WCI  -8
SAGUACHE       FAIR       5  -2  72 N7        30.11R WCI  -7
$$

COZ035-036-038>040-210900-
...NORTHERN COLORADO FRONT RANGE...

CITY           SKY/WX    TMP DP  RH WIND       PRES   REMARKS
DENVER INTL AP FAIR       3  -1  83 NW6       30.16S WCI  -8
AURORA         PTCLDY     4   1  88 W3        30.16R
FRONT RANGE AP FAIR       8   5  88 CALM      30.16F
ERIE MUNI ARPT FAIR      -5  -9  83 SW3       30.25F
BOULDER MUN AP FAIR       5   1  85 S5        30.18S WCI  -4
CENTENNIAL     FAIR       8   5  87 CALM      30.14R
BROOMFIELD     FAIR       7   3  85 CALM      30.16R
FORT COLLINS   FAIR       0  -4  85 NE8       30.21F WCI -15
LONGMONT       FAIR       1  -4  81 SW3       30.21F
$$

COZ041-046-047-076>085-087-088-210900-
...PIKES PEAK/PALMER DIVIDE AND SOUTHERN FOOTHILLS...

CITY           SKY/WX    TMP DP  RH WIND       PRES   REMARKS
COLO. SPRINGS  LGT SNOW   9   6  88 SE10      30.17F FOG     WCI  -5
A. F. ACADEMY  LGT SNOW  10   7  87 SE8       30.13S FOG     WCI  -2
SCHRIEVER AFB  NOT AVBL
CHEYENNE MTN   FLURRIES   7   5  92 S9        30.06S WCI  -7
ELLICOTT         N/A    N/A N/A N/A S7          N/A
FALCON         LGT SNOW   9   7  92 MISG      30.14R VSB 3/4
FORT CARSON    CLOUDY    10   6  82 S10       30.18R WCI  -4
LIMON          FAIR       0  -3  87 SE6       30.21F WCI -12
MONUMENT HILL  FLURRIES   7   3  85 S10       30.09S WCI  -8
CANON CITY     FLURRIES  18  14  86 CALM      30.21S
WALSENBURG     NOT AVBL
TRINIDAD       FAIR      10   5  80 N6        30.19F WCI   0
$$

COZ042>045-048>051-090-091-210900-
...NORTHEAST COLORADO...

CITY           SKY/WX    TMP DP  RH WIND       PRES   REMARKS
GREELEY ARPT   FAIR     -10 -14  82 CALM      30.25S
AKRON          FAIR       7   0  73 S9        30.24F WCI  -7
BURLINGTON     FAIR      -8 -12  83 W7        30.31S WCI -23
WRAY           CLOUDY    10   3  72 W7        30.35S WCI   0
YUMA           NOT AVBL
STERLING       FAIR       1  -4  78 CALM      30.29F
HOLYOKE        FAIR       9   1  72 SW5       30.34R WCI   0
FORT MORGAN    FAIR       3  -4  74 N7        30.25S WCI -10
$$

COZ086-089-092>099-210900-
...SOUTHEAST COLORADO...

CITY           SKY/WX    TMP DP  RH WIND       PRES   REMARKS
PUEBLO         MOCLDY    13   7  77 E5        30.27S WCI   5
LA JUNTA       FAIR       8   2  76 CALM      30.31F
LAMAR          FAIR       7  -1  70 CALM      30.33S
SPRINGFIELD      N/A      9   0  67 N5        30.28S WCI   1
$$




USA.gov is the U.S. government's official web portal to all federal, state and local government web resources and services.